GW0148 Weather Reports


time (UTC)temp
C
wind
direction
speed
KPH
gust
KPH
rain 1hr
cm
rain 24hr
cm
rain mn
cm
humidity
%
barometer
mb
20260509212637 20 201 11.3 24.1 0.00 0.48 0.51 56 1006.8
20260509211605 19 202 9.7 17.7 0.00 0.48 0.51 57 1006.8
20260509210533 20 198 4.8 19.3 0.00 0.48 0.51 59 1007.0
20260509205530 20 212 11.3 25.7 0.00 0.48 0.51 57 1006.9
20260509204520 19 195 8.0 25.7 0.00 0.48 0.51 59 1006.9
20260509203456 19 172 8.0 22.5 0.00 0.48 0.51 60 1007.1
20260509202447 19 156 8.0 16.1 0.00 0.48 0.51 60 1007.2
20260509201422 19 179 8.0 20.9 0.00 0.48 0.51 64 1007.4
20260509200434 19 201 6.4 22.5 0.00 0.48 0.51 64 1007.4
20260509195420 18 168 9.7 22.5 0.00 0.48 0.51 65 1007.5
20260509194356 18 172 9.7 20.9 0.00 0.48 0.51 65 1007.7
20260509193339 18 181 6.4 19.3 0.00 0.48 0.51 68 1008.0
20260509192329 18 186 9.7 22.5 0.00 0.48 0.51 66 1008.0
20260509191340 17 214 9.7 22.5 0.00 0.48 0.51 65 1008.2
20260509185150 17 168 4.8 17.7 0.00 0.48 0.51 69 1008.3
20260509184139 17 89 4.8 17.7 0.00 0.48 0.51 72 1008.3
20260509183136 17 144 3.2 12.9 0.00 0.48 0.51 74 1008.4
20260509182158 16 164 4.8 11.3 0.00 0.48 0.51 79 1008.5
20260509181203 15 154 4.8 9.7 0.00 0.48 0.51 81 1008.5
20260509180146 15 181 3.2 12.9 0.00 0.48 0.51 84 1008.6
20260509175123 14 151 4.8 12.9 0.00 0.48 0.51 85 1008.6
20260509174140 14 172 6.4 12.9 0.00 0.48 0.51 85 1008.6
20260509173118 14 188 6.4 12.9 0.00 0.48 0.51 86 1008.5
20260509170928 13 191 3.2 8.0 0.00 0.48 0.51 89 1008.3
20260509165855 13 137 1.6 14.5 0.00 0.48 0.51 89 1008.2
20260509164838 13 105 4.8 14.5 0.00 0.48 0.51 90 1008.1
20260509162728 13 105 3.2 16.1 0.10 0.48 0.51 91 1008.1
20260509161742 12 51 6.4 16.1 0.10 0.48 0.51 91 1008.0
20260509160751 12 156 4.8 16.1 0.00 0.48 0.48 91 1008.0
20260509155722 12 148 3.2 16.1 0.00 0.46 0.46 90 1008.2
20260509154739 12 111 4.8 16.1 0.00 0.46 0.46 90 1008.2
20260509153730 13 171 4.8 14.5 0.00 0.46 0.46 91 1008.2
20260509152713 13 95 1.6 6.4 0.00 0.46 0.46 92 1008.1
20260509151655 12 147 1.6 9.7 0.00 0.46 0.46 93 1008.3
20260509150632 12 147 3.2 9.7 0.00 0.46 0.46 92 1008.6
20260509145630 12 163 3.2 9.7 0.00 0.46 0.46 92 1008.7
20260509144641 12 161 1.6 12.9 0.00 0.46 0.46 92 1008.7
20260509143641 12 99 3.2 12.9 0.00 0.41 0.43 93 1008.7
20260509141447 11 202 3.2 11.3 0.00 0.41 0.43 93 1008.7
20260509140502 11 217 3.2 11.3 0.00 0.41 0.43 93 1008.8
20260509135507 11 161 3.2 11.3 0.00 0.41 0.41 93 1008.9
20260509134459 11 165 0.0 11.3 0.10 0.41 0.41 93 1008.9
20260509133455 11 156 0.0 4.8 0.00 0.36 0.38 93 1008.9
20260509132513 11 148 1.6 8.0 0.00 0.36 0.38 93 1009.0
20260509131519 11 134 0.0 8.0 0.13 0.33 0.33 93 1009.0
20260509130517 11 120 0.0 6.4 0.13 0.33 0.33 93 1009.0
20260509125510 11 122 0.0 8.0 0.13 0.33 0.33 93 1009.1
20260509124531 11 146 0.0 8.0 0.15 0.30 0.30 93 1009.2
20260509123457 11 79 0.0 6.4 0.20 0.25 0.25 93 1009.2
20260509122508 11 154 0.0 8.0 0.15 0.23 0.25 93 1009.2
20260509121507 11 169 1.6 8.0 0.13 0.23 0.23 93 1009.2
20260509115427 11 129 0.0 4.8 0.00 0.15 0.15 92 1009.1
20260509114431 11 89 0.0 3.2 0.00 0.15 0.15 92 1009.0
20260509113438 11 111 0.0 4.8 0.00 0.15 0.15 92 1009.1
20260509111307 11 105 0.0 4.8 0.00 0.15 0.15 92 1009.0
20260509110315 11 96 0.0 1.6 0.00 0.15 0.15 92 1008.9
20260509105307 11 99 0.0 0.0 0.00 0.15 0.15 92 1008.9
20260509104300 11 98 0.0 0.0 0.00 0.10 0.13 91 1008.9
20260509103247 11 120 0.0 1.6 0.00 0.10 0.13 91 1008.9
20260509102300 11 111 0.0 1.6 0.00 0.10 0.13 91 1008.9
20260509101225 11 90 0.0 0.0 0.00 0.10 0.10 90 1009.0
20260509100226 11 156 0.0 4.8 0.00 0.10 0.10 90 1009.1
20260509094107 11 147 0.0 0.0 0.00 0.08 0.08 89 1009.1
20260509093047 11 156 0.0 1.6 0.10 0.08 0.08 89 1009.2
20260509092106 11 63 0.0 6.4 0.10 0.08 0.08 88 1009.4
20260509091047 11 156 1.6 8.0 0.00 0.05 0.05 87 1009.5
20260509090026 11 163 4.8 11.3 0.00 0.03 0.03 85 1009.5
20260509085039 12 166 4.8 14.5 0.00 0.03 0.03 84 1009.6
20260509084049 12 171 6.4 16.1 0.00 0.00 0.00 83 1009.6
20260509083100 12 177 8.0 17.7 0.00 0.00 0.00 83 1009.6
20260509082042 11 170 3.2 17.7 0.00 0.00 0.00 88 1009.4
20260509081035 11 116 0.0 4.8 0.00 0.00 0.00 89 1009.2
20260509074912 11 172 0.0 0.0 0.00 0.00 0.00 88 1008.5
20260509073930 11 158 0.0 0.0 0.00 0.00 0.00 88 1008.3
20260509071851 11 152 0.0 0.0 0.00 0.00 0.00 87 1008.0
20260509070821 11 281 0.0 0.0 0.00 0.00 0.00 86 1007.9
20260509065831 11 285 0.0 0.0 0.00 0.00 0.00 87 1007.9
20260509064814 11 285 0.0 0.0 0.00 0.00 0.00 85 1007.9
20260509063820 11 275 0.0 0.0 0.00 0.00 0.00 83 1007.9
20260509062809 11 270 0.0 0.0 0.00 0.00 0.00 80 1008.1
20260509060708 11 267 0.0 0.0 0.00 0.00 0.00 81 1008.5
20260509055732 11 267 0.0 0.0 0.00 0.00 0.00 82 1008.8
20260509054744 11 312 0.0 0.0 0.00 0.00 0.00 82 1009.0
20260509053736 11 220 0.0 0.0 0.00 0.00 0.00 82 1009.2
20260509052740 11 154 0.0 0.0 0.00 0.00 0.00 82 1009.3
20260509051712 11 154 0.0 0.0 0.00 0.00 0.00 81 1009.3
20260509050732 11 98 0.0 0.0 0.00 0.00 0.00 82 1009.4
20260509045700 11 99 0.0 1.6 0.00 0.00 0.00 83 1009.4
20260509044642 11 0 0.0 0.0 0.00 0.00 0.00 86 1009.5
20260509040326 11 281 0.0 1.6 0.00 0.00 0.00 86 1009.5
20260509033055 12 240 0.0 0.0 0.00 0.00 0.00 83 1010.0
20260509032033 12 285 0.0 1.6 0.00 0.00 0.00 83 1010.1
20260509031038 12 281 0.0 0.0 0.00 0.00 0.00 83 1010.2
20260509030021 12 274 0.0 0.0 0.00 0.00 0.00 82 1010.4
20260509024958 12 291 0.0 0.0 0.00 0.00 0.00 82 1010.6
20260509023927 12 312 0.0 0.0 0.00 0.00 0.00 81 1010.5
20260509021844 12 147 0.0 0.0 0.00 0.00 0.00 79 1010.6
20260509020816 12 238 0.0 0.0 0.00 0.00 0.00 79 1010.3
20260509015800 12 298 0.0 0.0 0.00 0.00 0.00 76 1010.1
20260509014736 13 252 0.0 0.0 0.00 0.00 0.00 74 1010.1
20260509013751 13 306 0.0 0.0 0.00 0.00 0.00 74 1010.0
20260509012721 13 317 0.0 0.0 0.00 0.00 0.00 73 1009.9
20260509011706 13 317 0.0 0.0 0.00 0.00 0.00 70 1009.6
20260509010716 13 317 0.0 0.0 0.00 0.00 0.00 69 1009.4
20260509004604 13 298 0.0 0.0 0.00 0.00 0.00 69 1009.3
20260509001349 14 351 0.0 3.2 0.00 0.00 0.00 65 1009.3
20260509000326 14 285 0.0 0.0 0.00 0.00 0.00 65 1009.3
20260508235341 15 312 0.0 3.2 0.00 0.00 0.00 65 1009.5
20260508234321 15 329 0.0 0.0 0.00 0.00 0.00 65 1009.6
20260508233247 15 338 0.0 3.2 0.00 0.00 0.00 64 1009.4
20260508224803 16 359 0.0 1.6 0.00 0.00 0.00 56 1009.3
20260508223817 17 25 0.0 1.6 0.00 0.00 0.00 54 1009.3
20260508222741 17 111 0.0 3.2 0.00 0.00 0.00 54 1009.3
20260508220645 17 42 0.0 0.0 0.00 0.00 0.00 52 1009.3
20260508215611 17 64 0.0 0.0 0.00 0.00 0.00 51 1009.4
20260508214557 17 98 0.0 0.0 0.00 0.00 0.00 50 1009.5
20260508213614 17 90 0.0 1.6 0.00 0.00 0.00 50 1009.6